Time,TemperatureF,DewpointF,PressureIn,WindDirection,WindDirectionDegrees,WindSpeedMPH,WindSpeedGustMPH,Humidity,HourlyPrecipIn,Conditions,Clouds,dailyrainin,SoftwareType,DateUTC
2013-06-23 00:01:00,69.0,57.0,-100.00,NNW,330,3.0,7.0,64,-99.99,,,-99.99,,2013-06-23 04:01:00,
2013-06-23 00:11:00,69.0,57.0,-100.00,NW,310,3.0,7.0,64,-99.99,,,-99.99,,2013-06-23 04:11:00,
2013-06-23 00:31:00,69.0,57.0,-100.00,NNW,340,2.0,8.0,65,-99.99,,,-99.99,,2013-06-23 04:31:00,
2013-06-23 00:42:00,69.0,57.0,-100.00,NW,315,2.0,8.0,65,-99.99,,,-99.99,,2013-06-23 04:42:00,
2013-06-23 00:52:00,69.0,57.0,-100.00,NW,320,2.0,8.0,67,-99.99,,,-99.99,,2013-06-23 04:52:00,
2013-06-23 01:01:00,68.0,57.0,-100.00,NNW,330,3.0,9.0,67,-99.99,,,-99.99,,2013-06-23 05:01:00,
2013-06-23 01:11:00,68.0,57.0,-100.00,North,0,3.0,8.0,67,-99.99,,,-99.99,,2013-06-23 05:11:00,
2013-06-23 01:32:00,68.0,57.0,-100.00,WNW,300,2.0,6.0,69,-99.99,,,-99.99,,2013-06-23 05:32:00,
2013-06-23 01:41:00,68.0,57.0,-100.00,NW,315,2.0,7.0,69,-99.99,,,-99.99,,2013-06-23 05:41:00,
2013-06-23 01:51:00,68.0,57.0,-100.00,West,275,2.0,7.0,69,-99.99,,,-99.99,,2013-06-23 05:51:00,
2013-06-23 02:02:00,68.0,57.0,-100.00,West,275,3.0,9.0,69,-99.99,,,-99.99,,2013-06-23 06:02:00,
2013-06-23 02:12:00,68.0,57.0,-100.00,NW,325,2.0,7.0,69,-99.99,,,-99.99,,2013-06-23 06:12:00,
2013-06-23 02:33:00,68.0,57.0,-100.00,WSW,245,1.0,-999.0,69,-99.99,,,-99.99,,2013-06-23 06:33:00,
2013-06-23 02:43:00,68.0,57.0,-100.00,NNE,15,1.0,-999.0,69,-99.99,,,-99.99,,2013-06-23 06:43:00,
2013-06-23 02:52:00,67.0,57.0,-100.00,West,280,1.0,-999.0,70,-99.99,,,-99.99,,2013-06-23 06:52:00,
2013-06-23 03:02:00,68.0,57.0,-100.00,NNW,345,2.0,-999.0,69,-99.99,,,-99.99,,2013-06-23 07:02:00,
2013-06-23 03:12:00,68.0,57.0,-100.00,NW,325,2.0,-999.0,69,-99.99,,,-99.99,,2013-06-23 07:12:00,
2013-06-23 03:22:00,67.0,58.0,-100.00,NW,310,1.0,-999.0,71,-99.99,,,-99.99,,2013-06-23 07:22:00,
2013-06-23 03:34:00,67.0,58.0,-100.00,West,280,1.0,-999.0,74,-99.99,,,-99.99,,2013-06-23 07:34:00,
2013-06-23 03:43:00,66.0,58.0,-100.00,NW,320,3.0,-999.0,75,-99.99,,,-99.99,,2013-06-23 07:43:00,
2013-06-23 03:53:00,66.0,58.0,-100.00,NW,320,3.0,-999.0,75,-99.99,,,-99.99,,2013-06-23 07:53:00,
2013-06-23 04:02:00,66.0,58.0,-100.00,West,265,2.0,-999.0,76,-99.99,,,-99.99,,2013-06-23 08:02:00,
2013-06-23 04:12:00,66.0,58.0,-100.00,WNW,300,2.0,-999.0,76,-99.99,,,-99.99,,2013-06-23 08:12:00,
2013-06-23 04:34:00,66.0,58.0,-100.00,WNW,285,2.0,-999.0,75,-99.99,,,-99.99,,2013-06-23 08:34:00,
2013-06-23 04:43:00,66.0,58.0,-100.00,West,260,3.0,-999.0,75,-99.99,,,-99.99,,2013-06-23 08:43:00,
2013-06-23 04:53:00,66.0,58.0,-100.00,West,265,2.0,-999.0,76,-99.99,,,-99.99,,2013-06-23 08:53:00,
2013-06-23 05:02:00,66.0,58.0,-100.00,West,265,2.0,-999.0,76,-99.99,,,-99.99,,2013-06-23 09:02:00,
2013-06-23 05:12:00,65.0,58.0,-100.00,WSW,240,1.0,-999.0,79,-99.99,,,-99.99,,2013-06-23 09:12:00,
2013-06-23 05:34:00,65.0,58.0,-100.00,South,185,1.0,3.0,77,-99.99,,,-99.99,,2013-06-23 09:34:00,
2013-06-23 05:43:00,65.0,58.0,-100.00,WNW,290,1.0,3.0,77,-99.99,,,-99.99,,2013-06-23 09:43:00,
2013-06-23 05:53:00,65.0,58.0,-100.00,NW,320,3.0,6.0,77,-99.99,,,-99.99,,2013-06-23 09:53:00,
2013-06-23 06:02:00,66.0,57.0,-100.00,North,350,1.0,7.0,74,-99.99,,,-99.99,,2013-06-23 10:02:00,
2013-06-23 06:12:00,65.0,57.0,-100.00,North,5,1.0,5.0,75,-99.99,,,-99.99,,2013-06-23 10:12:00,
2013-06-23 06:34:00,66.0,57.0,-100.00,North,0,3.0,7.0,74,-99.99,,,-99.99,,2013-06-23 10:34:00,
2013-06-23 06:43:00,66.0,57.0,-100.00,NW,325,2.0,8.0,74,-99.99,,,-99.99,,2013-06-23 10:43:00,
2013-06-23 06:53:00,66.0,58.0,-100.00,WNW,285,2.0,5.0,75,-99.99,,,-99.99,,2013-06-23 10:53:00,
2013-06-23 07:02:00,65.0,58.0,-100.00,NW,320,2.0,5.0,77,-99.99,,,-99.99,,2013-06-23 11:02:00,
2013-06-23 07:11:00,66.0,58.0,-100.00,NE,50,1.0,5.0,77,-99.99,,,-99.99,,2013-06-23 11:11:00,
2013-06-23 07:33:00,67.0,58.0,-100.00,NW,320,3.0,8.0,74,-99.99,,,-99.99,,2013-06-23 11:33:00,
2013-06-23 07:43:00,67.0,59.0,-100.00,West,275,3.0,9.0,74,-99.99,,,-99.99,,2013-06-23 11:43:00,
2013-06-23 07:53:00,67.0,59.0,-100.00,NW,315,2.0,10.0,75,-99.99,,,-99.99,,2013-06-23 11:53:00,
2013-06-23 08:01:00,68.0,60.0,-100.00,WNW,285,2.0,8.0,75,-99.99,,,-99.99,,2013-06-23 12:01:00,
2013-06-23 08:12:00,69.0,60.0,-100.00,WNW,285,2.0,7.0,75,-99.99,,,-99.99,,2013-06-23 12:12:00,
2013-06-23 08:33:00,70.0,61.0,-100.00,NNE,20,2.0,7.0,74,-99.99,,,-99.99,,2013-06-23 12:33:00,
2013-06-23 08:43:00,71.0,62.0,-100.00,NW,320,3.0,9.0,74,-99.99,,,-99.99,,2013-06-23 12:43:00,
2013-06-23 09:02:00,72.0,63.0,-100.00,NW,310,3.0,9.0,73,-99.99,,,-99.99,,2013-06-23 13:02:00,
2013-06-23 09:11:00,71.0,62.0,-100.00,NW,325,6.0,12.0,72,-99.99,,,-99.99,,2013-06-23 13:11:00,
2013-06-23 09:24:00,71.0,62.0,-100.00,NW,325,6.0,12.0,72,-99.99,,,-99.99,,2013-06-23 13:24:00,
2013-06-23 09:34:00,72.0,63.0,-100.00,NW,310,2.0,10.0,73,-99.99,,,-99.99,,2013-06-23 13:34:00,
2013-06-23 09:43:00,72.0,64.0,-100.00,NW,315,3.0,9.0,74,-99.99,,,-99.99,,2013-06-23 13:43:00,
2013-06-23 09:53:00,73.0,64.0,-100.00,NW,320,2.0,8.0,73,-99.99,,,-99.99,,2013-06-23 13:53:00,
2013-06-23 10:22:00,76.0,66.0,-100.00,NNW,335,3.0,10.0,70,-99.99,,,-99.99,,2013-06-23 14:22:00,
2013-06-23 10:34:00,78.0,67.0,-100.00,NW,325,3.0,8.0,70,-99.99,,,-99.99,,2013-06-23 14:34:00,
2013-06-23 10:44:00,79.0,67.0,-100.00,ENE,65,3.0,7.0,66,-99.99,,,-99.99,,2013-06-23 14:44:00,
2013-06-23 10:52:00,79.0,68.0,-100.00,ENE,65,2.0,8.0,70,-99.99,,,-99.99,,2013-06-23 14:52:00,
2013-06-23 11:05:00,80.0,68.0,-100.00,NNW,340,5.0,8.0,67,-99.99,,,-99.99,,2013-06-23 15:05:00,
2013-06-23 11:12:00,80.0,68.0,-100.00,North,10,3.0,10.0,66,-99.99,,,-99.99,,2013-06-23 15:12:00,
2013-06-23 11:23:00,80.0,68.0,-100.00,NNW,345,5.0,8.0,66,-99.99,,,-99.99,,2013-06-23 15:23:00,
2013-06-23 11:35:00,81.0,69.0,-100.00,WNW,290,2.0,7.0,67,-99.99,,,-99.99,,2013-06-23 15:35:00,
2013-06-23 11:43:00,81.0,69.0,-100.00,North,10,3.0,10.0,65,-99.99,,,-99.99,,2013-06-23 15:43:00,
2013-06-23 11:52:00,83.0,68.0,-100.00,NNW,335,5.0,9.0,62,-99.99,,,-99.99,,2013-06-23 15:52:00,
2013-06-23 12:06:00,83.0,69.0,-100.00,NW,305,5.0,9.0,61,-99.99,,,-99.99,,2013-06-23 16:06:00,
2013-06-23 12:12:00,84.0,69.0,-100.00,NNE,30,3.0,8.0,61,-99.99,,,-99.99,,2013-06-23 16:12:00,
2013-06-23 12:36:00,85.0,70.0,-100.00,NNW,330,3.0,7.0,62,-99.99,,,-99.99,,2013-06-23 16:36:00,
2013-06-23 12:43:00,86.0,71.0,-100.00,North,355,3.0,8.0,62,-99.99,,,-99.99,,2013-06-23 16:43:00,
2013-06-23 12:53:00,86.0,71.0,-100.00,North,355,3.0,8.0,62,-99.99,,,-99.99,,2013-06-23 16:53:00,
2013-06-23 13:06:00,87.0,70.0,-100.00,West,275,6.0,12.0,58,-99.99,,,-99.99,,2013-06-23 17:06:00,
2013-06-23 13:12:00,88.0,71.0,-100.00,NNE,25,2.0,10.0,58,-99.99,,,-99.99,,2013-06-23 17:12:00,
2013-06-23 13:22:00,88.0,72.0,-100.00,NNW,345,2.0,9.0,59,-99.99,,,-99.99,,2013-06-23 17:22:00,
2013-06-23 13:33:00,88.0,72.0,-100.00,North,0,5.0,13.0,58,-99.99,,,-99.99,,2013-06-23 17:33:00,
2013-06-23 13:43:00,88.0,72.0,-100.00,WNW,295,5.0,10.0,58,-99.99,,,-99.99,,2013-06-23 17:43:00,
2013-06-23 13:53:00,89.0,72.0,-100.00,West,275,3.0,10.0,57,-99.99,,,-99.99,,2013-06-23 17:53:00,
2013-06-23 14:01:00,89.0,72.0,-100.00,NNW,335,6.0,13.0,58,-99.99,,,-99.99,,2013-06-23 18:01:00,
2013-06-23 14:12:00,89.0,72.0,-100.00,North,355,5.0,10.0,58,-99.99,,,-99.99,,2013-06-23 18:12:00,
2013-06-23 14:22:00,89.0,72.0,-100.00,NW,320,7.0,12.0,59,-99.99,,,-99.99,,2013-06-23 18:22:00,
2013-06-23 14:43:00,90.0,71.0,-100.00,West,280,8.0,16.0,55,-99.99,,,-99.99,,2013-06-23 18:43:00,
2013-06-23 14:53:00,89.0,71.0,-100.00,NW,320,5.0,13.0,56,-99.99,,,-99.99,,2013-06-23 18:53:00,
2013-06-23 15:01:00,90.0,72.0,-100.00,NNE,30,6.0,14.0,56,-99.99,,,-99.99,,2013-06-23 19:01:00,
2013-06-23 15:11:00,89.0,71.0,-100.00,NW,315,6.0,15.0,56,-99.99,,,-99.99,,2013-06-23 19:11:00,
2013-06-23 15:22:00,89.0,71.0,-100.00,NW,315,6.0,15.0,56,-99.99,,,-99.99,,2013-06-23 19:22:00,
2013-06-23 15:32:00,90.0,72.0,-100.00,NNW,330,6.0,15.0,57,-99.99,,,-99.99,,2013-06-23 19:32:00,
2013-06-23 15:43:00,90.0,72.0,-100.00,WNW,285,5.0,12.0,56,-99.99,,,-99.99,,2013-06-23 19:43:00,
2013-06-23 15:53:00,89.0,72.0,-100.00,NNE,20,3.0,13.0,57,-99.99,,,-99.99,,2013-06-23 19:53:00,
2013-06-23 16:02:00,89.0,72.0,-100.00,NNW,335,5.0,12.0,58,-99.99,,,-99.99,,2013-06-23 20:02:00,
2013-06-23 16:12:00,89.0,73.0,-100.00,NW,325,3.0,12.0,59,-99.99,,,-99.99,,2013-06-23 20:12:00,
2013-06-23 16:24:00,89.0,73.0,-100.00,NW,325,3.0,12.0,59,-99.99,,,-99.99,,2013-06-23 20:24:00,
2013-06-23 16:34:00,90.0,72.0,-100.00,NNW,330,6.0,13.0,56,-99.99,,,-99.99,,2013-06-23 20:34:00,
2013-06-23 16:42:00,90.0,71.0,-100.00,NW,305,3.0,13.0,54,-99.99,,,-99.99,,2013-06-23 20:42:00,
2013-06-23 16:53:00,90.0,71.0,-100.00,NW,305,3.0,13.0,54,-99.99,,,-99.99,,2013-06-23 20:53:00,
2013-06-23 17:01:00,89.0,71.0,-100.00,NW,315,5.0,17.0,54,-99.99,,,-99.99,,2013-06-23 21:01:00,
2013-06-23 17:12:00,89.0,70.0,-100.00,NW,320,8.0,15.0,54,-99.99,,,-99.99,,2013-06-23 21:12:00,
2013-06-23 17:34:00,88.0,69.0,-100.00,NNW,345,5.0,20.0,54,-99.99,,,-99.99,,2013-06-23 21:34:00,
2013-06-23 17:44:00,89.0,70.0,-100.00,NNW,345,6.0,15.0,54,-99.99,,,-99.99,,2013-06-23 21:44:00,
2013-06-23 17:52:00,88.0,70.0,-100.00,NNW,335,7.0,15.0,55,-99.99,,,-99.99,,2013-06-23 21:52:00,
2013-06-23 18:01:00,88.0,70.0,-100.00,NNW,345,6.0,14.0,55,-99.99,,,-99.99,,2013-06-23 22:01:00,
2013-06-23 18:12:00,88.0,69.0,-100.00,NW,310,5.0,13.0,54,-99.99,,,-99.99,,2013-06-23 22:12:00,
2013-06-23 18:22:00,88.0,69.0,-100.00,NW,310,5.0,13.0,54,-99.99,,,-99.99,,2013-06-23 22:22:00,
2013-06-23 18:32:00,86.0,68.0,-100.00,NW,320,7.0,17.0,54,-99.99,,,-99.99,,2013-06-23 22:32:00,
2013-06-23 18:43:00,86.0,68.0,-100.00,NNW,345,7.0,16.0,54,-99.99,,,-99.99,,2013-06-23 22:43:00,
2013-06-23 18:53:00,85.0,67.0,-100.00,North,0,6.0,15.0,55,-99.99,,,-99.99,,2013-06-23 22:53:00,
2013-06-23 19:01:00,85.0,67.0,-100.00,NW,325,8.0,17.0,55,-99.99,,,-99.99,,2013-06-23 23:01:00,
2013-06-23 19:12:00,85.0,68.0,-100.00,North,10,7.0,15.0,57,-99.99,,,-99.99,,2013-06-23 23:12:00,
2013-06-23 19:33:00,84.0,67.0,-100.00,North,0,6.0,17.0,57,-99.99,,,-99.99,,2013-06-23 23:33:00,
2013-06-23 19:44:00,84.0,67.0,-100.00,WNW,300,6.0,15.0,58,-99.99,,,-99.99,,2013-06-23 23:44:00,
2013-06-23 19:52:00,83.0,67.0,-100.00,North,355,3.0,17.0,59,-99.99,,,-99.99,,2013-06-23 23:52:00,
2013-06-23 20:01:00,83.0,67.0,-100.00,NNW,340,7.0,13.0,59,-99.99,,,-99.99,,2013-06-24 00:01:00,
2013-06-23 20:11:00,83.0,67.0,-100.00,North,350,6.0,13.0,60,-99.99,,,-99.99,,2013-06-24 00:11:00,
2013-06-23 20:42:00,81.0,68.0,-100.00,North,355,5.0,13.0,63,-99.99,,,-99.99,,2013-06-24 00:42:00,
2013-06-23 20:52:00,81.0,68.0,-100.00,NW,315,5.0,12.0,64,-99.99,,,-99.99,,2013-06-24 00:52:00,
2013-06-23 21:02:00,80.0,68.0,-100.00,NW,320,5.0,13.0,66,-99.99,,,-99.99,,2013-06-24 01:02:00,
2013-06-23 21:11:00,80.0,68.0,-100.00,NW,315,5.0,15.0,67,-99.99,,,-99.99,,2013-06-24 01:11:00,
2013-06-23 21:32:00,79.0,69.0,-100.00,NNW,335,6.0,12.0,70,-99.99,,,-99.99,,2013-06-24 01:32:00,
2013-06-23 21:42:00,79.0,68.0,-100.00,North,350,5.0,10.0,70,-99.99,,,-99.99,,2013-06-24 01:42:00,
2013-06-23 21:53:00,78.0,69.0,-100.00,NNW,335,5.0,12.0,72,-99.99,,,-99.99,,2013-06-24 01:53:00,
2013-06-23 22:02:00,78.0,69.0,-100.00,North,350,6.0,12.0,73,-99.99,,,-99.99,,2013-06-24 02:02:00,
2013-06-23 22:11:00,78.0,69.0,-100.00,NW,315,3.0,13.0,73,-99.99,,,-99.99,,2013-06-24 02:11:00,
2013-06-23 22:33:00,78.0,69.0,-100.00,NW,325,5.0,13.0,74,-99.99,,,-99.99,,2013-06-24 02:33:00,
2013-06-23 22:42:00,77.0,69.0,-100.00,NW,320,5.0,13.0,75,-99.99,,,-99.99,,2013-06-24 02:42:00,
2013-06-23 23:01:00,77.0,69.0,-100.00,NW,325,6.0,13.0,76,-99.99,,,-99.99,,2013-06-24 03:01:00,
2013-06-23 23:11:00,77.0,69.0,-100.00,North,350,5.0,12.0,77,-99.99,,,-99.99,,2013-06-24 03:11:00,
2013-06-23 23:33:00,76.0,69.0,-100.00,NNW,330,5.0,12.0,78,-99.99,,,-99.99,,2013-06-24 03:33:00,
2013-06-23 23:43:00,76.0,69.0,-100.00,NW,325,3.0,12.0,78,-99.99,,,-99.99,,2013-06-24 03:43:00,
2013-06-23 23:53:00,76.0,69.0,-100.00,North,355,5.0,15.0,79,-99.99,,,-99.99,,2013-06-24 03:53:00,